This is the latest recevied weather packets stored in our database for station/object N4WFF. If no packets are shown the sender has not sent any weather packets the latest 10 day(s).
| Time | Temp. | Humidity | Pressure | Rain* | Wind** | Luminosity | Snow |
|---|---|---|---|---|---|---|---|
| 1777556157 | 18.33° C | 96% | 1011.9 hPa | 0 mm | - | 195 W/m² | - |
| 1777555856 | 18.33° C | 97% | 1012 hPa | 0 mm | - | 199 W/m² | - |
| 1777555556 | 18.33° C | 96% | 1012.1 hPa | 0 mm | - | 188 W/m² | - |
| 1777555256 | 18.33° C | 97% | 1012.2 hPa | 0 mm | - | 172 W/m² | - |
| 1777554956 | 17.78° C | 97% | 1012.3 hPa | 0 mm | - | 158 W/m² | - |
| 1777554656 | 17.78° C | 97% | 1012.4 hPa | 0 mm | - | 117 W/m² | - |
| 1777554356 | 17.78° C | 97% | 1012.5 hPa | 0 mm | - | 109 W/m² | - |
| 1777554056 | 17.78° C | 97% | 1012.5 hPa | 0 mm | - | 109 W/m² | - |
| 1777553756 | 17.78° C | 97% | 1012.5 hPa | 0 mm | - | 101 W/m² | - |
| 1777553456 | 17.78° C | 97% | 1012.5 hPa | 0 mm | - | 91 W/m² | - |
| 1777553155 | 17.78° C | 97% | 1012.3 hPa | 0 mm | - | 71 W/m² | - |
| 1777552855 | 17.78° C | 97% | 1012.2 hPa | 0 mm | - | 69 W/m² | - |
| 1777552555 | 17.78° C | 97% | 1012.1 hPa | 0 mm | - | 69 W/m² | - |
| 1777552256 | 17.78° C | 97% | 1012.2 hPa | 0 mm | - | 79 W/m² | - |
| 1777551956 | 17.78° C | 97% | 1012 hPa | 0 mm | - | 58 W/m² | - |
| 1777551655 | 17.78° C | 97% | 1012.1 hPa | 0 mm | - | 30 W/m² | - |
| 1777551355 | 17.78° C | 97% | 1012 hPa | 0 mm | - | 43 W/m² | - |
| 1777551055 | 17.78° C | 97% | 1011.9 hPa | 0 mm | - | 42 W/m² | - |
| 1777550755 | 17.78° C | 97% | 1011.9 hPa | 0 mm | - | 46 W/m² | - |
| 1777550456 | 17.78° C | 97% | 1012 hPa | 0 mm | - | 45 W/m² | - |
| 1777550156 | 17.78° C | 97% | 1012.1 hPa | 0 mm | - | 26 W/m² | - |
| 1777549856 | 17.78° C | 97% | 1012.2 hPa | 0 mm | - | 19 W/m² | - |
| 1777549559 | 17.78° C | 97% | 1012.1 hPa | 0 mm | - | 16 W/m² | - |
| 1777549255 | 17.78° C | 97% | 1012.1 hPa | 0 mm | - | 16 W/m² | - |
| 1777548955 | 17.78° C | 97% | 1012.1 hPa | 0 mm | - | 17 W/m² | - |
* Rain latest hour (hover to see other rain measurements)
** Current wind speed in m/s (hover to see current wind gust speed)